User: anonymous   Login
Location: Unspecified
(0.0000°N, 0.0000°E)
Time: 06:47:21
(UTC+00:00)
Language:

RASSVET-3 3 - Orbit

View from above orbital plane
View from above orbital plane
View from above satellite
View from above satellite

Ground track
Ground track

The orbit is defined by the following mean orbital elements,

1 68362U          26145.15610944 +.00000000 +00000-0 +37813-3 0 00001
2 68362  82.2972  38.4150 0002985 136.5478 223.6015 15.63466582    01
Epoch (UTC): 25 May 2026 03:44:47
Eccentricity: 0.0002985
inclination: 82.2972°
perigee height: 376 km
apogee height: 380 km
right ascension of ascending node: 38.4150°
argument of perigee: 136.5478°
revolutions per day: 15.63466582
mean anomaly at epoch: 223.6015°

The dashed part of the orbit path shows where the satellite is in the earth's shadow,  

DLR